TimeCDT,TemperatureF,Dew PointF,Humidity,Sea Level PressureIn,VisibilityMPH,Wind Direction,Wind SpeedMPH,Gust SpeedMPH,PrecipitationIn,Events,Conditions,WindDirDegrees,DateUTC
12:54 AM,55.0,48.9,80,29.98,10.0,NW,4.6,-,N/A,,Clear,320,2013-08-03 05:54:00
1:54 AM,53.1,48.0,83,29.99,10.0,Calm,Calm,-,N/A,,Clear,0,2013-08-03 06:54:00
2:54 AM,50.0,46.9,89,29.99,10.0,Calm,Calm,-,N/A,,Clear,0,2013-08-03 07:54:00
3:54 AM,50.0,46.9,89,30.01,10.0,Calm,Calm,-,N/A,,Clear,0,2013-08-03 08:54:00
4:54 AM,50.0,46.9,89,30.02,10.0,Calm,Calm,-,N/A,,Clear,0,2013-08-03 09:54:00
5:54 AM,48.0,46.0,93,30.03,10.0,Calm,Calm,-,N/A,,Clear,0,2013-08-03 10:54:00
6:54 AM,53.1,48.9,86,30.05,10.0,Calm,Calm,-,N/A,,Clear,0,2013-08-03 11:54:00
7:54 AM,57.9,50.0,75,30.05,10.0,NW,5.8,-,N/A,,Clear,310,2013-08-03 12:54:00
8:54 AM,63.0,52.0,67,30.04,10.0,Calm,Calm,-,N/A,,Clear,0,2013-08-03 13:54:00
9:54 AM,68.0,51.1,55,30.05,10.0,NNW,11.5,-,N/A,,Clear,340,2013-08-03 14:54:00
10:54 AM,68.0,48.9,50,30.06,10.0,NW,12.7,20.7,N/A,,Mostly Cloudy,320,2013-08-03 15:54:00
11:54 AM,72.0,51.1,48,30.06,10.0,NW,11.5,18.4,N/A,,Mostly Cloudy,320,2013-08-03 16:54:00
12:54 PM,71.1,48.0,44,30.07,10.0,WNW,11.5,-,N/A,,Overcast,300,2013-08-03 17:54:00
1:54 PM,72.0,48.9,44,30.06,10.0,NW,13.8,23.0,N/A,,Mostly Cloudy,320,2013-08-03 18:54:00
2:54 PM,73.0,51.1,46,30.07,10.0,West,12.7,-,N/A,,Mostly Cloudy,280,2013-08-03 19:54:00
3:54 PM,72.0,51.1,48,30.08,10.0,NNW,12.7,19.6,N/A,,Overcast,340,2013-08-03 20:54:00
4:54 PM,72.0,51.1,48,30.08,10.0,NW,12.7,20.7,N/A,,Partly Cloudy,310,2013-08-03 21:54:00
5:54 PM,71.1,50.0,47,30.09,10.0,NNW,15.0,23.0,N/A,,Clear,330,2013-08-03 22:54:00
6:54 PM,68.0,48.9,50,30.11,10.0,North,12.7,-,N/A,,Clear,350,2013-08-03 23:54:00
7:54 PM,64.9,50.0,58,30.12,10.0,NNW,9.2,-,N/A,,Clear,340,2013-08-04 00:54:00
8:54 PM,57.9,50.0,75,30.13,10.0,NNW,3.5,-,N/A,,Clear,340,2013-08-04 01:54:00
9:54 PM,55.9,50.0,80,30.14,10.0,North,3.5,-,N/A,,Clear,350,2013-08-04 02:54:00
10:54 PM,52.0,48.0,86,30.16,10.0,North,3.5,-,N/A,,Clear,360,2013-08-04 03:54:00
11:54 PM,51.1,48.0,89,30.17,10.0,Calm,Calm,-,N/A,,Clear,0,2013-08-04 04:54:00